Weather History for Franklin, NC

Change the Weather History Date:

Wednesday, October 3, 2012

  Actual Average (KTOC) Record (KTOC)
Temperature  
Mean Temperature 63 °F -  
Max Temperature 75 °F 78 °F - (-1)
Min Temperature 51 °F 52 °F - (-1)
Degree Days  
Heating Degree Days 2    
Growing Degree Days 13 (Base 50)    
Moisture  
Dew Point 52 °F    
Average Humidity 76    
Maximum Humidity 100    
Minimum Humidity 29    
Precipitation  
Precipitation 0.00 in - - ()
Sea Level Pressure  
Sea Level Pressure 30.14 in    
Wind  
Wind Speed 1 mph (ESE)    
Max Wind Speed 8 mph    
Max Gust Speed -    
Visibility 8 miles    
Events Fog    
Averages and records for this station are not official NWS values.
T = Trace of Precipitation, MM = Missing Value Source: NWS Daily Summary

Daily Weather History Graph

Daily Weather History Graph

Search for Another Location

Airport:

Trip Planner

Search our weather history database for the weather conditions in past years. The results will help you decide how hot, cold, wet, or windy it might be!

Date:

Astronomy

Oct. 03, 2012 Rise Set
Actual Time 7:30 AM EDT 7:14 PM EDT
Civil Twilight 7:05 AM EDT 7:39 PM EDT
Nautical Twilight 6:35 AM EDT 8:08 PM EDT
Astronomical Twilight 6:06 AM EDT 8:38 PM EDT
Moon 9:14 PM EDT (10/3) 10:43 AM EDT (10/3)
Length of Visible Light 12h 34m
Length of Day
11h 43m
Waning Gibbous, 89% of the Moon is Illuminated
Oct 3
Waning Gibbous
Oct 8
Last Quarter
Oct 15
New
Oct 21
First Quarter
Oct 29
Full

Hourly Weather History & Observations

Time (EDT) Temp. Dew Point Humidity Pressure Visibility Wind Dir Wind Speed Gust Speed Precip Events Conditions
12:15 AM 62.6 °F 57.2 °F 82% 30.03 in 10.0 mi Calm Calm - N/A   Overcast
12:35 AM 60.8 °F 59.0 °F 94% 30.03 in 10.0 mi Calm Calm - N/A   Overcast
12:55 AM 60.8 °F 59.0 °F 94% 30.03 in 10.0 mi Calm Calm - N/A   Scattered Clouds
1:15 AM 59.0 °F 59.0 °F 100% 30.04 in 10.0 mi Calm Calm - N/A   Scattered Clouds
1:35 AM 57.2 °F 57.2 °F 100% 30.04 in 10.0 mi Calm Calm - N/A   Clear
1:55 AM 55.4 °F 55.4 °F 100% 30.05 in 10.0 mi Calm Calm - N/A   Clear
2:15 AM 55.4 °F 55.4 °F 100% 30.06 in 7.0 mi Calm Calm - N/A   Clear
2:35 AM 55.4 °F 55.4 °F 100% 30.06 in 10.0 mi Calm Calm - N/A   Clear
2:55 AM 53.6 °F 53.6 °F 100% 30.06 in 10.0 mi Calm Calm - N/A   Clear
3:15 AM 53.6 °F 53.6 °F 100% 30.07 in 0.8 mi Calm Calm - N/A   Mist
3:35 AM 53.6 °F 53.6 °F 100% 30.06 in 5.0 mi Calm Calm - N/A   Clear
3:55 AM 51.8 °F 51.8 °F 100% 30.06 in 7.0 mi Calm Calm - N/A   Mostly Cloudy
4:15 AM 51.8 °F 51.8 °F 100% 30.06 in 7.0 mi Calm Calm - N/A   Overcast
4:35 AM 53.6 °F 51.8 °F 94% 30.07 in 5.0 mi Calm Calm - N/A   Mostly Cloudy
4:55 AM 53.6 °F 53.6 °F 100% 30.06 in 7.0 mi Calm Calm - N/A   Scattered Clouds
5:15 AM 51.8 °F 51.8 °F 100% 30.07 in 5.0 mi Calm Calm - N/A   Clear
5:35 AM 53.6 °F 51.8 °F 94% 30.08 in 10.0 mi Calm Calm - N/A   Clear
5:55 AM 53.6 °F 51.8 °F 94% 30.08 in 7.0 mi Calm Calm - N/A   Clear
6:15 AM 51.8 °F 51.8 °F 100% 30.09 in 7.0 mi Calm Calm - N/A   Clear
6:55 AM 51.8 °F 51.8 °F 100% 30.11 in 7.0 mi Calm Calm - N/A   Clear
7:15 AM 51.8 °F 51.8 °F 100% 30.11 in 1.0 mi Calm Calm - N/A   Overcast
7:35 AM 51.8 °F 51.8 °F 100% 30.12 in 1.0 mi Calm Calm - N/A   Overcast
7:55 AM 53.6 °F 51.8 °F 94% 30.12 in 0.2 mi Calm Calm - N/A Fog Fog
8:15 AM 53.6 °F 53.6 °F 100% 30.13 in 0.5 mi Calm Calm - N/A Fog Fog
8:35 AM 53.6 °F 53.6 °F 100% 30.14 in 1.5 mi Calm Calm - N/A   Overcast
8:55 AM 53.6 °F 53.6 °F 100% 30.15 in 1.0 mi Calm Calm - N/A   Overcast
9:15 AM 53.6 °F 53.6 °F 100% 30.15 in 0.2 mi Calm Calm - N/A Fog Fog
9:35 AM 53.6 °F 53.6 °F 100% 30.16 in 0.2 mi Calm Calm - N/A Fog Fog
9:55 AM 55.4 °F 53.6 °F 94% 30.17 in 0.2 mi Calm Calm - N/A Fog Fog
10:15 AM 55.4 °F 55.4 °F 100% 30.17 in 1.0 mi Calm Calm - N/A   Overcast
10:35 AM 57.2 °F 55.4 °F 94% 30.17 in 10.0 mi Calm Calm - N/A   Mostly Cloudy
10:55 AM 60.8 °F 59.0 °F 94% 30.16 in 10.0 mi Calm Calm - N/A   Clear
11:15 AM 64.4 °F 53.6 °F 68% 30.16 in 10.0 mi Calm Calm - N/A   Clear
11:35 AM 68.0 °F 53.6 °F 60% 30.16 in 10.0 mi Calm Calm - N/A   Clear
11:55 AM 69.8 °F 51.8 °F 53% 30.15 in 10.0 mi East 3.5 mph - N/A   Clear
12:15 PM 71.6 °F 48.2 °F 43% 30.15 in 10.0 mi East 5.8 mph - N/A   Clear
12:35 PM 71.6 °F 50.0 °F 46% 30.14 in 10.0 mi East 3.5 mph - N/A   Clear
12:55 PM 73.4 °F 50.0 °F 44% 30.14 in 10.0 mi ESE 4.6 mph - N/A   Clear
1:15 PM 73.4 °F 44.6 °F 36% 30.14 in 10.0 mi ESE 5.8 mph - N/A   Clear
1:35 PM 73.4 °F 41.0 °F 31% 30.13 in 10.0 mi Calm Calm - N/A   Clear
1:55 PM 73.4 °F 41.0 °F 31% 30.13 in 10.0 mi ESE 3.5 mph - N/A   Clear
2:15 PM 73.4 °F 42.8 °F 33% 30.12 in 10.0 mi SSE 5.8 mph - N/A   Clear
2:35 PM 75.2 °F 41.0 °F 29% 30.12 in 10.0 mi SE 8.1 mph - N/A   Clear
2:55 PM 71.6 °F 41.0 °F 33% 30.11 in 10.0 mi ESE 3.5 mph - N/A   Clear
3:15 PM 71.6 °F 42.8 °F 35% 30.12 in 10.0 mi ESE 5.8 mph - N/A   Clear
3:35 PM 71.6 °F 50.0 °F 46% 30.12 in 10.0 mi Calm Calm - N/A   Clear
3:55 PM 71.6 °F 50.0 °F 46% 30.14 in 10.0 mi SSW 5.8 mph - N/A   Clear
4:15 PM 69.8 °F 48.2 °F 46% 30.13 in 10.0 mi Calm Calm - N/A   Clear
4:35 PM 69.8 °F 50.0 °F 49% 30.12 in 10.0 mi ESE 6.9 mph - N/A   Clear
4:55 PM 69.8 °F 50.0 °F 49% 30.14 in 10.0 mi SE 3.5 mph - N/A   Clear
5:15 PM 69.8 °F 50.0 °F 49% 30.15 in 10.0 mi SE 3.5 mph - N/A   Clear
5:35 PM 69.8 °F 50.0 °F 49% 30.14 in 10.0 mi Calm Calm - N/A   Clear
5:55 PM 68.0 °F 50.0 °F 52% 30.15 in 10.0 mi Calm Calm - N/A   Clear
6:15 PM 68.0 °F 51.8 °F 56% 30.16 in 10.0 mi East 3.5 mph - N/A   Clear
6:35 PM 66.2 °F 50.0 °F 56% 30.17 in 10.0 mi SE 4.6 mph - N/A   Clear
6:55 PM 64.4 °F 50.0 °F 59% 30.18 in 10.0 mi Calm Calm - N/A   Clear
7:15 PM 64.4 °F 51.8 °F 64% 30.17 in 10.0 mi Calm Calm - N/A   Clear
7:35 PM 62.6 °F 51.8 °F 68% 30.18 in 10.0 mi Calm Calm - N/A   Clear
7:55 PM 60.8 °F 51.8 °F 72% 30.18 in 10.0 mi Calm Calm - N/A   Clear
8:15 PM 62.6 °F 51.8 °F 68% 30.19 in 10.0 mi Calm Calm - N/A   Clear
8:35 PM 60.8 °F 51.8 °F 72% 30.20 in 10.0 mi Calm Calm - N/A   Clear
8:55 PM 60.8 °F 51.8 °F 72% 30.21 in 10.0 mi Calm Calm - N/A   Clear
9:15 PM 60.8 °F 51.8 °F 72% 30.21 in 10.0 mi Calm Calm - N/A   Clear
9:35 PM 59.0 °F 53.6 °F 82% 30.23 in 10.0 mi Calm Calm - N/A   Clear
9:55 PM 59.0 °F 53.6 °F 82% 30.23 in 10.0 mi Calm Calm - N/A   Clear
10:15 PM 59.0 °F 53.6 °F 82% 30.24 in 10.0 mi Calm Calm - N/A   Clear
10:35 PM 57.2 °F 53.6 °F 88% 30.25 in 10.0 mi Calm Calm - N/A   Clear
10:55 PM 55.4 °F 53.6 °F 94% 30.25 in 10.0 mi Calm Calm - N/A   Clear
11:15 PM 55.4 °F 53.6 °F 94% 30.25 in 10.0 mi Calm Calm - N/A   Clear
11:35 PM 55.4 °F 53.6 °F 94% 30.25 in 10.0 mi Calm Calm - N/A   Clear
11:55 PM 55.4 °F 53.6 °F 94% 30.25 in 10.0 mi Calm Calm - N/A   Clear